"Pseudo-MPEC" for C0E4805

Created 2022 Nov 25 13:22:03 UT using Find_Orb

Click here for an explanation of pseudo-MPECs

 
 Astrometry: 
     C0E4805* C2022 11 233h2!eGSp(u$AlK]9e*Uy:JX4ao8t-7-u$/ui0(98#=3JhKc-/r,IV00
     C0E4805  C2022 11 23B^*4P$ABepFtE5_NOQ+F?U5jrAstrometryByk)H3G`q[7OVY;LYV00
     C0E4805  C2022 11 23irnNw+Dredacted;ya3i3UB$^D8,+/Av_x/T$hCP6rPhR\2QwEt0V00
     C0E4805  C2022 11 23Tim:'yyjtu)L^]Q''=SX+_nq6EdUJZD=t%ptJkIS=.kHhL*+%jd0V00
     C0E4805 KC2022 11 23.44784 04 08 31.95 +21 32 02.3    ~BNBb       oNEOCP291
     C0E4805 KC2022 11 23.45416 04 08 31.64 +21 32 31.9    ~BNBb       oNEOCP291
     C0E4805 KC2022 11 23.46048 04 08 31.43 +21 33 01.3    ~BNBb       oNEOCP291
     C0E4805 mC2022 11 24;TUWd\RcyLhpl;$F2fk[T=e:B'^`k:12dmMmjp=EbXIbjiS%Cpj]V00
     C0E4805 mC2022 11 24lKvRvF-2[!PbHu2etOww7AclickfEG/okGbqCn3?o*[?'f[O;nn5V00
     C0E4805 mC2022 11 24CE24gxY4a)YbEP_9Xb_xAfdp%Jnmd\QXo?sxR\C)A7GyI9wDhereV00
     C0E4805 mC2022 11 24Y;)@KH4fnqLJjHB\lKW)L1\uJ4s*Ot3pE5^=!SrrYBbYj_o60M?]V00
     C0E4805 mC2022 11 258V2cj,m?ZZi%pNBK[nDn6`([ywq0$7G=GYZ7?MVforyaFXWNU)cIV00
     C0E4805 mC2022 11 25'1`A9AAk8+I)RfPeFA+Mx^ix=Fr)CAdT[`H'9ofbR)]])$h1V'.DV00
     C0E4805 mC2022 11 25h^17H@s.hOi'x/CQMLh10FSAWZue$u.texplanationY?f\__DMhV00
     C0E4805 mC2022 11 25h.gwRr%X`jh`Cc=X^]6Zk1m0w)J6(Q$p`EGl=LJWm:V[r;bOcsBtV00

Station data:
(291) LPL/Spacewatch II  (N31.961669 W111.599905)  US/Arizona.  Observers J.
   V. Scotti, R. S. McMillan. 1.8-m f/2.7 reflector + CCD.
(V00) Kitt Peak-Bok  (N31.963125 W111.600190)  US/Arizona.  Observers T. A.
   Pruyne, B. M. Africano, E. J. Christensen, G. A. Farneth, D. C. Fuls, A.
   R. Gibbs, A. D. Grauer, H. Gröller, J. A. Johnson, R. A. Kowalski, S. M.
   Larson, G. J. Leonard, D. Rankin, R. L. Seaman, F. C. Shelly, K. W.
   Wierzchoś. 2.25-m reflector + CCD.

Orbital elements:  C0E4805
   Perihelion 2022 Oct 13.01379 +/- 0.0608 TT =  0:19:51 (JD 2459865.51379)
Epoch 2022 Nov 25.0 TT = JDT 2459908.5   Earth MOID: 0.1406   AutoNEOCP
M  13.17309750 +/- 0.45             (J2000 ecliptic)
n   0.30644939 +/- 0.0107           Peri.  318.24408 +/- 0.09
a   2.17886439 +/- 0.0508           Node    61.00249 +/- 0.008
e   0.5056075 +/- 0.0109            Incl.   13.83690 +/- 0.21
P   3.22                   H 25.4   G  0.15   U  9.7
q 1.07721421 +/- 0.00148    Q 3.28051458 +/- 0.1
From 15 observations 2022 Nov. 23-25 (46.4 hr); mean residual 0".28
Residuals in arcseconds: 
221123 V00  .16-  .55-    221123 291  .51-  .43+    221124 V00  .01+  .07+    
221123 V00  .07+  .38-    221123 291  .52+  .48+    221125 V00  .13+  .09-    
221123 V00  .24+  .19-    221124 V00  .18+  .04-    221125 V00  .02+  .29-    
221123 V00  .10-  .46-    221124 V00  .17+  .04-    221125 V00  .09-  .14+    
221123 291  .20-  .20+    221124 V00  .22+  .26-    221125 V00  .29-  .28+    

Ephemerides (geocentric):
Date (UTC) HH   RA             Dec           delta  r     elong  mag " sig PA
---- --------  ------------   ------------  ------ ------ -----  --- --------
2022 11 25 13  04 07 23.336   +24 08 31.16  .20244 1.1893 176.5 22.6 .153 121
2022 11 25 14  04 07 21.963   +24 11 27.76  .20265 1.1895 176.5 22.6 .160 118
2022 11 25 15  04 07 20.592   +24 14 23.98  .20286 1.1897 176.4 22.6 .168 116
2022 11 25 16  04 07 19.222   +24 17 19.81  .20307 1.1899 176.4 22.6 .176 114
2022 11 25 17  04 07 17.854   +24 20 15.26  .20328 1.1901 176.4 22.7 .184 112
2022 11 25 18  04 07 16.488   +24 23 10.34  .20350 1.1903 176.3 22.7 .192 110
2022 11 25 19  04 07 15.123   +24 26 05.03  .20371 1.1905 176.3 22.7 .200 108
2022 11 25 20  04 07 13.761   +24 28 59.34  .20392 1.1907 176.3 22.7 .209 107
2022 11 25 21  04 07 12.399   +24 31 53.28  .20413 1.1909 176.2 22.7 .217 105
2022 11 25 22  04 07 11.040   +24 34 46.83  .20435 1.1911 176.2 22.7 .226 104
2022 11 25 23  04 07 09.682   +24 37 40.01  .20456 1.1913 176.2 22.7 .235 102
2022 11 26 00  04 07 08.326   +24 40 32.81  .20477 1.1915 176.1 22.7 .244 101
2022 11 26 01  04 07 06.972   +24 43 25.24  .20499 1.1917 176.1 22.7 .253 100
2022 11 26 02  04 07 05.620   +24 46 17.29  .20520 1.1919 176.1 22.7 .262  99
2022 11 26 03  04 07 04.269   +24 49 08.96  .20542 1.1921 176.0 22.7 .271  98
2022 11 26 04  04 07 02.920   +24 52 00.26  .20563 1.1923 176.0 22.7 .280  97
2022 11 26 05  04 07 01.573   +24 54 51.18  .20585 1.1925 176.0 22.7 .289  96
2022 11 26 06  04 07 00.228   +24 57 41.72  .20607 1.1927 175.9 22.7 .298  95
2022 11 26 07  04 06 58.885   +25 00 31.90  .20628 1.1929 175.9 22.7 .307  94
2022 11 26 08  04 06 57.544   +25 03 21.70  .20650 1.1931 175.8 22.7 .316  93
2022 11 26 09  04 06 56.204   +25 06 11.12  .20672 1.1933 175.8 22.7 .325  93
2022 11 26 10  04 06 54.867   +25 09 00.18  .20693 1.1935 175.8 22.7 .334  92
2022 11 26 11  04 06 53.531   +25 11 48.86  .20715 1.1937 175.7 22.7 .343  91
2022 11 26 12  04 06 52.198   +25 14 37.17  .20737 1.1939 175.7 22.7 .353  90
2022 11 26 13  04 06 50.866   +25 17 25.11  .20759 1.1941 175.6 22.7 .362  90
2022 11 26 14  04 06 49.536   +25 20 12.68  .20780 1.1943 175.6 22.7 .371  89
2022 11 26 15  04 06 48.208   +25 22 59.88  .20802 1.1945 175.6 22.7 .380  88
2022 11 26 16  04 06 46.882   +25 25 46.71  .20824 1.1947 175.5 22.8 .389  88
2022 11 26 17  04 06 45.559   +25 28 33.17  .20846 1.1949 175.5 22.8 .398  87
2022 11 26 18  04 06 44.237   +25 31 19.26  .20868 1.1951 175.4 22.8 .407  87
2022 11 26 19  04 06 42.917   +25 34 04.99  .20890 1.1953 175.4 22.8 .416  86
2022 11 26 20  04 06 41.599   +25 36 50.35  .20912 1.1955 175.3 22.8 .425  85
2022 11 26 21  04 06 40.284   +25 39 35.34  .20934 1.1957 175.3 22.8 .434  85
2022 11 26 22  04 06 38.970   +25 42 19.96  .20956 1.1959 175.3 22.8 .443  84
2022 11 26 23  04 06 37.659   +25 45 04.22  .20978 1.1961 175.2 22.8 .452  84
2022 11 27 00  04 06 36.349   +25 47 48.12  .21000 1.1963 175.2 22.8 .461  83
2022 11 27 01  04 06 35.042   +25 50 31.64  .21023 1.1965 175.1 22.8 .470  83
2022 11 27 02  04 06 33.737   +25 53 14.81  .21045 1.1967 175.1 22.8 .479  82
2022 11 27 03  04 06 32.434   +25 55 57.61  .21067 1.1969 175.0 22.8 .488  81
2022 11 27 04  04 06 31.133   +25 58 40.05  .21089 1.1971 175.0 22.8 .497  81
2022 11 27 05  04 06 29.834   +26 01 22.12  .21112 1.1973 174.9 22.8 .506  80
2022 11 27 06  04 06 28.538   +26 04 03.84  .21134 1.1975 174.9 22.8 .515  80
2022 11 27 07  04 06 27.244   +26 06 45.19  .21156 1.1977 174.9 22.8 .524  79
2022 11 27 08  04 06 25.951   +26 09 26.18  .21179 1.1979 174.8 22.8 .533  79
2022 11 27 09  04 06 24.662   +26 12 06.81  .21201 1.1981 174.8 22.8 .542  78
2022 11 27 10  04 06 23.374   +26 14 47.08  .21224 1.1983 174.7 22.8 .551  78
2022 11 27 11  04 06 22.089   +26 17 26.99  .21246 1.1985 174.7 22.8 .559  77
2022 11 27 12  04 06 20.805   +26 20 06.54  .21269 1.1987 174.6 22.8 .568  77